CZ-3B DEB, 40815

Orbit data source: Space-Track

CZ-3B DEB, 40815 is space debris in HEO originally from a launch on Sat, 04 Sep 2010 UTC launched from the Xichang Space Center, China (XSC). Debris objects in space refer to the collection of defunct objects orbiting the Earth. Examples of debris include non-operational satellites, rocket bodies, and fragments generated from explosions, collisions, or faulty payload assembly.

Loading next visibility...
Identifier
40815, 2010-042Y
Orbit
HEO
Country
Flag of CNCN / PRC
Related business
Manufacturer
CALT
Mission
Spacecraft
Bus & Motor
Unknown
Mass
Unknown
Launch date (UTC)
2010-09-04 (16 years ago)
Launch vehicle
Unknown
Launch site
Xichang Space Center, China (XSC)
Object type
Payload
Rocket body
Debris
Shape & HBR
Unknown shape, 0.2 m
Radar Cross Section
Medium (>0.1 m² and <1 m²)

Expand to show TLE details & history
Last TLE update: 1 month ago

TLE from 1 month ago
0 CZ-3B DEB
1 40815U 10042Y   26191.72504013  .00000064  00000-0  17026-1 0  9993
2 40815  25.9070 128.2314 7323792 225.0574  45.0063  1.91039819  7233
Epoch: 2026-07-10T17:24Z
TLE epoch observation values (Epoch: 2026-07-10T17:24:03.467Z)
Latitude
0.00014°
Longitude
-61.50418°
Altitude
20,023.58 km
Speed
3.958 km/s
True Right ascension
08h 32m 38s
True Declination
0° 00' 00"
Sunlit
Object was in daylight at epoch
Visualization orbit readout
Latitude
Unknown
Longitude
Unknown
Altitude
Unknown
Speed
Unknown
Apparent Right ascension
Unknown
Apparent Declination
Unknown
Sunlit
N/A
Visualization observer readout
Local Sidereal Time
00:48:07
Azimuth
Unknown
Elevation
Unknown
Doppler factor
Unknown
Orbital elements
Apogee altitude
41,157.566 km
Perigee altitude
965.257 km
Semi-major axis
27,439.548 km
Eccentricity
0.73238
Inclination
25.907°
RAAN
128.2314°
Arg. of periapsis
225.0574°
True anomaly
134.93776°
Mean anomaly
45.0063°
Eccentric anomaly
86.90743°
Mean motion
0.4775 °/min
Orbital period
753.92 mins
BSTAR
0.017026
Loading maneuver chart data...
Computing Atmospheric mass density...
Loading historical data...
Loading historical data...
Loading historical data...
Loading historical data...
Loading historical data...
Loading historical data...
Loading historical data...

Documentation

Showing up to 5 results
|